Weather History for KEKN - August, 2014

Change the Weather History Date:

Saturday, August 2, 2014

  Actual Average Record
Temperature  
Mean Temperature 67 °F 70 °F  
Max Temperature 81 °F 81 °F 94 °F (1995)
Min Temperature 52 °F 59 °F 46 °F (1998)
Degree Days  
Heating Degree Days 0 0  
Month to date heating degree days 0 0  
Since 1 June heating degree days 47 67  
Since 1 July heating degree days 33 12  
Cooling Degree Days 2 5  
Month to date cooling degree days 3 10  
Year to date cooling degree days 327 291  
Since 1 June cooling degree days 291 268  
Growing Degree Days 16 (Base 50)    
Moisture  
Dew Point 57 °F    
Average Humidity 71    
Maximum Humidity 96    
Minimum Humidity 45    
Precipitation  
Precipitation 0.55 in 0.15 in 2.09 in (1921)
Month to date precipitation 0.55 0.29  
Year to date precipitation 25.69 29.26  
Snow  
Snow 0.00 in - - ()
Month to date snowfall 0.0  
Since 1 September snowfall 92.3  
Snow Depth 0.00 in    
Sea Level Pressure  
Sea Level Pressure 30.15 in    
Wind  
Wind Speed 1 mph (WNW)    
Max Wind Speed 7 mph    
Max Gust Speed 17 mph    
Visibility 6 miles    
Events Fog , Rain    
T = Trace of Precipitation, MM = Missing Value Source: NWS Daily Summary

Daily Weather History Graph

Daily Weather History Graph

Search for Another Location

Airport or City:

Trip Planner

Search our weather history database for the weather conditions in past years. The results will help you decide how hot, cold, wet, or windy it might be!

Date:

Astronomy

Aug. 02, 2014 Rise Set
Actual Time 6:21 AM EDT 8:29 PM EDT
Civil Twilight 5:51 AM EDT 8:58 PM EDT
Nautical Twilight 5:15 AM EDT 9:35 PM EDT
Astronomical Twilight 4:35 AM EDT 10:14 PM EDT
Moon 12:37 PM EDT (8/2) 11:51 PM EDT (8/2)
Length of Visible Light 15h 07m
Length of Day
14h 08m
Waxing Crescent, 36% of the Moon is Illuminated
Aug 2
Waxing Crescent
Aug 3
First Quarter
Aug 10
Full
Aug 17
Last Quarter
Aug 25
New

Hourly Weather History & Observations

Time (EDT) Temp. Heat Index Dew Point Humidity Pressure Visibility Wind Dir Wind Speed Gust Speed Precip Events Conditions
12:51 AM 55.9 °F - 53.1 °F 90% 30.19 in 6.0 mi Calm Calm - N/A   Clear
1:51 AM 55.9 °F - 53.1 °F 90% 30.17 in 6.0 mi Calm Calm - N/A   Clear
2:51 AM 53.6 °F - 51.8 °F 94% 30.17 in 6.0 mi Calm Calm - N/A   Clear
3:51 AM 54.0 °F - 51.1 °F 90% 30.14 in 3.0 mi Calm Calm - N/A   Clear
4:51 AM 53.1 °F - 51.1 °F 93% 30.16 in 4.0 mi Calm Calm - N/A   Clear
5:51 AM 52.0 °F - 50.0 °F 93% 30.17 in 5.0 mi Calm Calm - N/A   Partly Cloudy
6:05 AM 53.1 °F - 51.1 °F 93% 30.18 in 4.0 mi Calm Calm - N/A   Scattered Clouds
6:10 AM 53.1 °F - 50.0 °F 89% 30.18 in 2.5 mi Calm Calm - N/A   Mostly Cloudy
6:16 AM 53.1 °F - 50.0 °F 89% 30.18 in 0.8 mi Calm Calm - N/A   Mist
6:29 AM 52.0 °F - 50.0 °F 93% 30.18 in 0.2 mi Calm Calm - N/A Fog Fog
6:38 AM 52.0 °F - 50.0 °F 93% 30.18 in 0.5 mi Calm Calm - N/A Fog Fog
6:48 AM 51.8 °F - 50.0 °F 94% 30.18 in 2.5 mi Calm Calm - N/A   Clear
6:51 AM 53.1 °F - 50.0 °F 89% 30.17 in 4.0 mi Calm Calm - N/A   Clear
6:58 AM 53.1 °F - 51.1 °F 93% 30.18 in 0.5 mi WNW 3.5 mph - N/A Fog Fog
7:06 AM 54.0 °F - 51.1 °F 90% 30.19 in 0.2 mi Calm Calm - N/A Fog Fog
7:16 AM 54.0 °F - 53.1 °F 97% 30.19 in 0.5 mi Calm Calm - N/A Fog Fog
7:26 AM 55.0 °F - 54.0 °F 96% 30.19 in 2.0 mi Calm Calm - N/A   Mostly Cloudy
7:30 AM 55.0 °F - 53.1 °F 93% 30.19 in 3.0 mi Calm Calm - N/A   Mostly Cloudy
7:51 AM 57.0 °F - 54.0 °F 89% 30.18 in 5.0 mi Calm Calm - N/A   Scattered Clouds
8:51 AM 62.1 °F - 55.9 °F 80% 30.19 in 9.0 mi Calm Calm - N/A   Clear
9:51 AM 68.0 °F - 57.9 °F 70% 30.17 in 10.0 mi Calm Calm - N/A   Clear
10:51 AM 73.0 °F - 59.0 °F 61% 30.17 in 10.0 mi Variable 3.5 mph - N/A   Clear
11:51 AM 77.0 °F - 57.0 °F 50% 30.16 in 10.0 mi Calm Calm - N/A   Clear
12:51 PM 78.1 °F - 57.9 °F 50% 30.14 in 10.0 mi WNW 6.9 mph - N/A   Clear
1:51 PM 80.1 °F 80.4 °F 57.0 °F 45% 30.12 in 10.0 mi Calm Calm - N/A   Partly Cloudy
2:51 PM 78.1 °F - 57.0 °F 48% 30.10 in 10.0 mi Variable 4.6 mph - N/A   Mostly Cloudy
3:51 PM 81.0 °F 81.7 °F 61.0 °F 50% 30.08 in 10.0 mi West 4.6 mph - N/A   Mostly Cloudy
4:41 PM 70.0 °F - 62.1 °F 76% 30.10 in 1.8 mi Variable 5.8 mph - 0.09 in Rain Heavy Rain
4:51 PM 69.1 °F - 64.0 °F 84% 30.11 in 1.8 mi SSE 5.8 mph - 0.20 in Rain Heavy Rain
5:13 PM 68.0 °F - 64.0 °F 87% 30.11 in 2.5 mi SE 3.5 mph - 0.14 in Rain Rain
5:21 PM 66.9 °F - 64.0 °F 90% 30.11 in 4.0 mi Calm Calm - 0.15 in Rain Light Rain
5:51 PM 69.1 °F - 64.9 °F 87% 30.11 in 10.0 mi Calm Calm - 0.15 in   Overcast
6:51 PM 69.1 °F - 64.0 °F 84% 30.10 in 10.0 mi NNW 3.5 mph - 0.00 in   Overcast
7:51 PM 68.0 °F - 64.0 °F 87% 30.10 in 10.0 mi Calm Calm - 0.00 in Rain Light Rain
8:49 PM 66.2 °F - 64.4 °F 94% 30.11 in 10.0 mi Calm Calm - 0.00 in   Overcast
8:51 PM 66.0 °F - 63.0 °F 90% 30.10 in 10.0 mi Calm Calm - 0.00 in   Overcast
9:03 PM 66.9 °F - 64.0 °F 90% 30.12 in 10.0 mi North 3.5 mph - N/A   Overcast
9:06 PM 66.9 °F - 63.0 °F 87% 30.12 in 10.0 mi NNW 3.5 mph - N/A   Overcast
9:22 PM 66.9 °F - 64.0 °F 90% 30.13 in 10.0 mi WNW 4.6 mph - N/A   Overcast
9:36 PM 66.0 °F - 63.0 °F 90% 30.13 in 10.0 mi NW 9.2 mph - N/A   Overcast
9:46 PM 66.2 °F - 62.6 °F 88% 30.14 in 10.0 mi West 6.9 mph - N/A   Overcast
9:51 PM 64.9 °F - 62.1 °F 90% 30.12 in 3.0 mi NW 10.4 mph 17.3 mph 0.01 in Rain Heavy Rain
9:54 PM 64.9 °F - 61.0 °F 87% 30.15 in 2.5 mi WNW 5.8 mph 17.3 mph 0.06 in Rain Heavy Rain
10:03 PM 63.0 °F - 60.1 °F 90% 30.15 in 1.5 mi Calm Calm - 0.16 in Rain Heavy Rain
10:09 PM 62.6 °F - 60.8 °F 94% 30.15 in 3.0 mi Calm Calm - N/A Rain Rain
10:44 PM 63.0 °F - 60.1 °F 90% 30.13 in 10.0 mi Calm Calm - 0.19 in Rain Light Rain
10:51 PM 63.0 °F - 60.1 °F 90% 30.11 in 10.0 mi Calm Calm - 0.19 in   Overcast
11:03 PM 63.0 °F - 60.1 °F 90% 30.13 in 10.0 mi Calm Calm - N/A   Scattered Clouds
11:51 PM 62.1 °F - 60.1 °F 93% 30.11 in 10.0 mi Calm Calm - N/A   Clear